Location: Kellogg
(38.0159°N, 90.0546°W)
Time: 08:00:04
(UTC+00:00)

Vanguard 1 Rocket - Pass Details

Date: 19 September 2024
Orbit: 650 x 4218 km, 34.3° (Epoch: 05 October)

Event Time Altitude Azimuth Distance (km) Brightness Sun altitude
Rises 17:38:24 0° 279° (W) 8,361 12.2 52.9°
Reaches altitude 10° 17:49:25 10° 259° (W) 7,408 12.2 53.1°
Maximum altitude 17:59:10 14° 236° (WSW) 6,832 12.4 53.0°
Drops below altitude 10° 18:08:11 10° 212° (SSW) 6,659 12.5 52.9°
Sets 18:17:08 0° 190° (S) 6,939 12.5 52.7°
